Weather in Aksakshur

Russia / Udmurt Republic     56°26′26″N   53°11′22″E
temp.,
°C
wind,
m/s
gust,
m/s
humid.,
%
clouds,
%
prec.,
mm/h
press.,
hPa
HPBL,
m
15 may, sat
sat1501:00+19ssw412561 0.0 1019219
04:00+16sw48678 0.0 1020140
07:00+19sw376757 0.0 1020193
10:00+24ssw4650100 0.0 1020508
13:00+28sw683491 0.0 10201008
16:00+28sw6937100 0.0 10191100
19:00+25ssw41154100 0.0 1018254
22:00+20ssw410628 0.0 1018172
16 may, sun
sun1601:00+18ssw35635 0.0 101871
04:00+17ssw47615 0.0 1019103
07:00+20ssw410565 0.0 1019239
10:00+26ssw69393 0.0 1018654
13:00+29sw79285 0.0 10172487
16:00+29sw7103542 0.0 10172471
19:00+25ssw5114680 0.0 1016297
22:00+20sw3554100 0.0 101656
17 may, mon
mon1701:00+18sw355692 0.0 101768
04:00+17ssw36649 0.0 101776
07:00+20wsw37607 0.0 1018193
10:00+25wsw46458 0.0 1018741
13:00+27wsw6103836 0.0 10181706
16:00+28wsw693583 0.0 10172582
19:00+24wnw355410 0.0 101795
22:00+20nw22687 0.1 101819
18 may, tue
tue1801:00+18nnw226615 0.1 101911
04:00+16nw117611 0.4 101911
07:00+19n226514 0.0 1020169
10:00+23nne224963 0.0 1020799
13:00+26nne234140 0.0 10191359
16:00+27nw24354 0.0 10192088
19:00+24ne59493 0.0 1019273
22:00+18e35565 0.0 102175
19 may, wed
wed1901:00+15ene410699 0.0 1021216
04:00+13e4108254 0.0 1022211
07:00+16ese597226 0.0 1023333
10:00+20ese565475 0.0 1022770
13:00+24se56425 0.0 10221256
16:00+24se563924 0.0 10211428
19:00+22ese48535 0.0 1020245
22:00+17ese412627 0.0 1020214